Time,TemperatureF,DewpointF,PressureIn,WindDirection,WindDirectionDegrees,WindSpeedMPH,WindSpeedGustMPH,Humidity,HourlyPrecipIn,Conditions,Clouds,dailyrainin,SolarRadiationWatts/m^2,SoftwareType,DateUTC
2014-01-01 00:02:00,35.0,26.0,-100.00,SSE,164,8.0,15.0,69,0.00,,,0.00,0.000000,,2014-01-01 06:02:00,
2014-01-01 00:42:00,34.0,26.0,-100.00,SSE,149,9.0,12.0,72,0.00,,,0.00,0.000000,,2014-01-01 06:42:00,
2014-01-01 00:53:00,34.0,26.0,-100.00,SSE,149,9.0,12.0,72,0.00,,,0.00,0.000000,,2014-01-01 06:53:00,
2014-01-01 01:02:00,34.0,26.0,-100.00,SSE,149,9.0,12.0,72,0.00,,,0.00,0.000000,,2014-01-01 07:02:00,
2014-01-01 01:42:00,34.0,27.0,-100.00,SSE,150,8.0,11.0,74,0.00,,,0.00,0.000000,,2014-01-01 07:42:00,
2014-01-01 01:52:00,34.0,27.0,-100.00,SSE,150,8.0,11.0,74,0.00,,,0.00,0.000000,,2014-01-01 07:52:00,
2014-01-01 02:02:00,34.0,27.0,-100.00,SSE,150,8.0,11.0,74,0.00,,,0.00,0.000000,,2014-01-01 08:02:00,
2014-01-01 02:42:00,32.0,26.0,-100.00,SSE,157,8.0,11.0,79,0.00,,,0.00,0.000000,,2014-01-01 08:42:00,
2014-01-01 02:52:00,32.0,26.0,-100.00,SSE,157,8.0,11.0,79,0.00,,,0.00,0.000000,,2014-01-01 08:52:00,
2014-01-01 03:03:00,32.0,26.0,-100.00,SSE,157,8.0,11.0,79,0.00,,,0.00,0.000000,,2014-01-01 09:03:00,
2014-01-01 03:43:00,33.0,27.0,-100.00,South,179,8.0,11.0,79,0.00,,,0.00,0.000000,,2014-01-01 09:43:00,
2014-01-01 03:53:00,33.0,27.0,-100.00,South,179,8.0,11.0,79,0.00,,,0.00,0.000000,,2014-01-01 09:53:00,
2014-01-01 04:02:00,33.0,27.0,-100.00,South,179,8.0,11.0,79,0.00,,,0.00,0.000000,,2014-01-01 10:02:00,
2014-01-01 04:43:00,32.0,25.0,-100.00,South,174,7.0,12.0,75,0.00,,,0.00,0.000000,,2014-01-01 10:43:00,
2014-01-01 04:53:00,32.0,25.0,-100.00,South,174,7.0,12.0,75,0.00,,,0.00,0.000000,,2014-01-01 10:53:00,
2014-01-01 05:02:00,32.0,25.0,-100.00,South,174,7.0,12.0,75,0.00,,,0.00,0.000000,,2014-01-01 11:02:00,
2014-01-01 05:42:00,31.0,24.0,-100.00,SSE,163,7.0,9.0,74,0.00,,,0.00,0.000000,,2014-01-01 11:42:00,
2014-01-01 05:53:00,31.0,24.0,-100.00,SSE,163,7.0,9.0,74,0.00,,,0.00,0.000000,,2014-01-01 11:53:00,
2014-01-01 06:02:00,31.0,24.0,-100.00,SSE,163,7.0,9.0,74,0.00,,,0.00,0.000000,,2014-01-01 12:02:00,
2014-01-01 06:42:00,31.0,24.0,-100.00,SSE,160,8.0,11.0,74,0.00,,,0.00,0.000000,,2014-01-01 12:42:00,
2014-01-01 06:52:00,31.0,24.0,-100.00,SSE,160,8.0,11.0,74,0.00,,,0.00,0.000000,,2014-01-01 12:52:00,
2014-01-01 07:02:00,31.0,24.0,-100.00,SSE,160,8.0,11.0,74,0.00,,,0.00,0.000000,,2014-01-01 13:02:00,
2014-01-01 07:42:00,31.0,23.0,-100.00,SSE,153,5.0,9.0,72,0.00,,,0.00,0.000000,,2014-01-01 13:42:00,
2014-01-01 07:52:00,31.0,23.0,-100.00,SSE,153,5.0,9.0,72,0.00,,,0.00,0.000000,,2014-01-01 13:52:00,
2014-01-01 08:01:00,31.0,23.0,-100.00,SSE,153,5.0,9.0,72,0.00,,,0.00,0.000000,,2014-01-01 14:01:00,
2014-01-01 08:42:00,33.0,23.0,-100.00,SE,139,6.0,8.0,65,0.00,,,0.00,19.000000,,2014-01-01 14:42:00,
2014-01-01 08:53:00,33.0,23.0,-100.00,SE,139,6.0,8.0,65,0.00,,,0.00,19.000000,,2014-01-01 14:53:00,
2014-01-01 09:02:00,33.0,23.0,-100.00,SE,139,6.0,8.0,65,0.00,,,0.00,19.000000,,2014-01-01 15:02:00,
2014-01-01 09:43:00,37.0,24.0,-100.00,SE,139,7.0,9.0,60,0.00,,,0.00,176.000000,,2014-01-01 15:43:00,
2014-01-01 09:53:00,37.0,24.0,-100.00,SE,139,7.0,9.0,60,0.00,,,0.00,176.000000,,2014-01-01 15:53:00,
2014-01-01 10:03:00,37.0,24.0,-100.00,SE,139,7.0,9.0,60,0.00,,,0.00,176.000000,,2014-01-01 16:03:00,
2014-01-01 10:43:00,37.0,24.0,-100.00,SE,134,9.0,12.0,59,0.00,,,0.00,336.000000,,2014-01-01 16:43:00,
2014-01-01 10:53:00,37.0,24.0,-100.00,SE,134,9.0,12.0,59,0.00,,,0.00,336.000000,,2014-01-01 16:53:00,
2014-01-01 11:02:00,37.0,24.0,-100.00,SE,134,9.0,12.0,59,0.00,,,0.00,336.000000,,2014-01-01 17:02:00,
2014-01-01 11:43:00,41.0,27.0,-100.00,SE,138,8.0,11.0,56,0.00,,,0.00,435.000000,,2014-01-01 17:43:00,
2014-01-01 11:52:00,41.0,27.0,-100.00,SE,138,8.0,11.0,56,0.00,,,0.00,435.000000,,2014-01-01 17:52:00,
2014-01-01 12:02:00,41.0,27.0,-100.00,SE,138,8.0,11.0,56,0.00,,,0.00,435.000000,,2014-01-01 18:02:00,
2014-01-01 12:42:00,42.0,28.0,-100.00,SE,144,8.0,14.0,57,0.00,,,0.00,626.000000,,2014-01-01 18:42:00,
2014-01-01 12:53:00,42.0,28.0,-100.00,SE,144,8.0,14.0,57,0.00,,,0.00,626.000000,,2014-01-01 18:53:00,
2014-01-01 13:01:00,42.0,28.0,-100.00,SE,144,8.0,14.0,57,0.00,,,0.00,626.000000,,2014-01-01 19:01:00,
2014-01-01 13:42:00,43.0,29.0,-100.00,SE,139,10.0,13.0,58,0.00,,,0.00,594.000000,,2014-01-01 19:42:00,
2014-01-01 13:53:00,43.0,29.0,-100.00,SE,139,10.0,13.0,58,0.00,,,0.00,594.000000,,2014-01-01 19:53:00,
2014-01-01 14:02:00,43.0,29.0,-100.00,SE,139,10.0,13.0,58,0.00,,,0.00,594.000000,,2014-01-01 20:02:00,
2014-01-01 14:42:00,42.0,28.0,-100.00,SE,126,11.0,15.0,58,0.00,,,0.00,408.000000,,2014-01-01 20:42:00,
2014-01-01 14:53:00,42.0,28.0,-100.00,SE,126,11.0,15.0,58,0.00,,,0.00,408.000000,,2014-01-01 20:53:00,
2014-01-01 15:02:00,42.0,28.0,-100.00,SE,126,11.0,15.0,58,0.00,,,0.00,408.000000,,2014-01-01 21:02:00,
2014-01-01 15:43:00,43.0,31.0,-100.00,SE,143,12.0,17.0,63,0.00,,,-99.99,217.000000,,2014-01-01 21:43:00,
2014-01-01 15:53:00,43.0,31.0,-100.00,SE,143,12.0,17.0,63,0.00,,,-99.99,217.000000,,2014-01-01 21:53:00,
2014-01-01 16:03:00,43.0,31.0,-100.00,SE,143,12.0,17.0,63,0.00,,,-99.99,217.000000,,2014-01-01 22:03:00,
2014-01-01 16:42:00,44.0,32.0,-100.00,SE,140,10.0,17.0,62,0.00,,,0.00,178.000000,,2014-01-01 22:42:00,
2014-01-01 16:53:00,44.0,32.0,-100.00,SE,140,10.0,17.0,62,0.00,,,0.00,178.000000,,2014-01-01 22:53:00,
2014-01-01 17:02:00,44.0,32.0,-100.00,SE,140,10.0,17.0,62,0.00,,,0.00,178.000000,,2014-01-01 23:02:00,
2014-01-01 17:42:00,43.0,30.0,-100.00,SSE,158,9.0,15.0,61,0.00,,,0.00,126.000000,,2014-01-01 23:42:00,
2014-01-01 17:53:00,43.0,30.0,-100.00,SSE,158,9.0,15.0,61,0.00,,,0.00,126.000000,,2014-01-01 23:53:00,
2014-01-01 18:02:00,43.0,30.0,-100.00,SSE,158,9.0,15.0,61,0.00,,,0.00,126.000000,,2014-01-02 00:02:00,
2014-01-01 18:42:00,45.0,34.0,-100.00,SSE,159,9.0,15.0,66,0.00,,,0.00,1.000000,,2014-01-02 00:42:00,
2014-01-01 18:52:00,45.0,34.0,-100.00,SSE,159,9.0,15.0,66,0.00,,,0.00,1.000000,,2014-01-02 00:52:00,
2014-01-01 19:02:00,45.0,34.0,-100.00,SSE,159,9.0,15.0,66,0.00,,,0.00,1.000000,,2014-01-02 01:02:00,
2014-01-01 19:42:00,44.0,34.0,-100.00,SE,145,7.0,13.0,68,0.00,,,0.00,0.000000,,2014-01-02 01:42:00,
2014-01-01 19:52:00,44.0,34.0,-100.00,SE,145,7.0,13.0,68,0.00,,,0.00,0.000000,,2014-01-02 01:52:00,
2014-01-01 20:02:00,44.0,34.0,-100.00,SE,145,7.0,13.0,68,0.00,,,0.00,0.000000,,2014-01-02 02:02:00,
2014-01-01 20:52:00,43.0,34.0,-100.00,SSE,153,5.0,9.0,70,0.00,,,0.00,0.000000,,2014-01-02 02:52:00,
2014-01-01 21:02:00,43.0,34.0,-100.00,SSE,153,5.0,9.0,70,0.00,,,0.00,0.000000,,2014-01-02 03:02:00,
2014-01-01 21:43:00,45.0,37.0,-100.00,WSW,252,4.0,7.0,72,0.00,,,0.00,0.000000,,2014-01-02 03:43:00,
2014-01-01 21:53:00,45.0,37.0,-100.00,WSW,252,4.0,7.0,72,0.00,,,0.00,0.000000,,2014-01-02 03:53:00,
2014-01-01 22:03:00,45.0,37.0,-100.00,WSW,252,4.0,7.0,72,0.00,,,0.00,0.000000,,2014-01-02 04:03:00,
2014-01-01 22:43:00,43.0,34.0,-100.00,NNW,329,10.0,17.0,70,0.00,,,0.00,0.000000,,2014-01-02 04:43:00,
2014-01-01 22:53:00,43.0,34.0,-100.00,NNW,329,10.0,17.0,70,0.00,,,0.00,0.000000,,2014-01-02 04:53:00,
2014-01-01 23:02:00,43.0,34.0,-100.00,NNW,329,10.0,17.0,70,0.00,,,0.00,0.000000,,2014-01-02 05:02:00,
2014-01-01 23:42:00,39.0,28.0,-100.00,NNW,332,12.0,21.0,65,0.00,,,0.00,0.000000,,2014-01-02 05:42:00,
2014-01-01 23:53:00,39.0,28.0,-100.00,NNW,332,12.0,21.0,65,0.00,,,0.00,0.000000,,2014-01-02 05:53:00,